Tracking 30701 objects as of 14-Jun-2025
HD Live streaming from Space Station
objects crossing your sky now

FENGYUN 1C DEB

Track FENGYUN 1C DEB now!
10-day predictions


NORAD ID: 30859
Int'l Code: 1999-025AWV
Perigee: 725.1 km
Apogee: 773.9 km
Inclination: 98.9 °
Period: 99.7 minutes
Semi major axis: 7120 km
RCS: 0.0174 m2 (small)
Launch date: May 10, 1999
Source: People's Republic of China (PRC)
Launch site: Taiyaun Space Center, China (TSC)

Note: This is SATELLITE DEBRIS
Your satellite tracking list
Your tracking list is empty




NASA's NSSDC Master Catalog

Two Line Element Set (TLE):
1 30859U 99025AWV 25165.55404723  .00008532  00000-0  24440-2 0  9993
2 30859  98.9201 206.1232 0034275 206.3880 153.5565 14.44896454944556
Source of the keplerian elements: AFSPC